Regional Weather Roundup
Issued by NWS Albany, NY

Home | Current Version | Previous Version | Text Only | Print | Product List | Glossary On
Versions: 1 2 3 4 5 6 7 8 9 10 11 12 13 14 15 16 17 18 19 20 21 22 23 24 25 26 27 28 29 30 31 32 33 34 35 36 37 38 39 40 41 42 43 44 45 46 47 48 49 50
000
ASUS41 KALY 261910
RWRALY

NEW YORK STATE HOURLY WEATHER ROUNDUP
NATIONAL WEATHER SERVICE ALBANY NY
300 PM EDT TUE JUL 26 2016

NOTE: "FAIR" INDICATES FEW OR NO CLOUDS BELOW 12,000 FEET WITH NO
SIGNIFICANT WEATHER AND/OR NO OBSTRUCTIONS TO VISIBILITY.

NYZ032-033-038>043-046>054-057>066-NYZ062>081-082-084-262000-
EAST


CITY           SKY/WX    TMP DP  RH WIND       PRES   REMARKS
ALBANY         MOSUNNY   87  62  43 NW15G22   29.88F
GLENS FALLS    CLOUDY    83  63  50 VRB3      29.86F
POUGHKEEPSIE   SUNNY     90  61  37 N12       29.87S HX  90
MONTGOMERY     MOSUNNY   88  63  43 NW10      29.89F
WHITE PLAINS   MOSUNNY   88  61  40 NW16G22   29.88S
ISLIP          PTSUNNY   91  63  39 NW15G23   29.86S HX  92
NEW YORK CITY  PTSUNNY   89  65  44 NW10      29.86S HX  91
CENTRAL PARK   PTSUNNY   88  65  46 VRB7      29.91R HX  90
$$

NYZ005>009-017-018-044>046-055-056-262000-
CENTRAL


CITY           SKY/WX    TMP DP  RH WIND       PRES   REMARKS
FULTON         SUNNY     83  62  49 W13G23    29.97F
SYRACUSE       PTSUNNY   81  63  54 NW12      29.96S
ROME           PTSUNNY   80  65  59 W17       29.94F
ELMIRA         MOSUNNY   85  57  38 W6        29.96F
BINGHAMTON     MOSUNNY   79  59  50 N13G21    30.00S
MONTICELLO     MOSUNNY   81  63  54 NW10G16   29.98S
$$

NYZ026>034-041>043-087-262000-
NORTH


CITY           SKY/WX    TMP DP  RH WIND       PRES   REMARKS
WATERTOWN      SUNNY     82  64  54 SW13G22   29.93S
FORT DRUM      NOT AVBL
MASSENA        CLOUDY    81  63  54 W8        29.89S
SARANAC LAKE   CLOUDY    74  57  55 VRB6      29.94R
PLATTSBURGH    PTSUNNY   80  61  52 W10G18    29.86S
$$

NYZ001>004-010>016-019>021-085-262000-
WEST


CITY           SKY/WX    TMP DP  RH WIND       PRES   REMARKS
NIAGARA FALLS  MOSUNNY   83  55  38 CALM      30.00F
BUFFALO        MOSUNNY   79  63  57 SW12      30.00F
DUNKIRK        SUNNY     77  62  59 W8        30.03F
JAMESTOWN      SUNNY     77  57  50 NW8       30.06F
WELLSVILLE     MOSUNNY   82  57  42 VRB6      30.06F
ROCHESTER      PTSUNNY   81  61  50 W8        29.99S
PENN YAN       MOSUNNY   81  60  48 NW9       30.00F
$$

             KEY
       WCI = WIND CHILL INDEX
       VSB = VISIBILITY
       HX  = HEAT INDEX
$$



USA.gov is the U.S. government's official web portal to all federal, state and local government web resources and services.